Powrót do katalogu

NOAA 16 DEB

AktywnyPO
NORAD 41273·DEBRIS·🇺🇸 United States

Wystrzelony Sep 21, 2000 z Vandenberg Space Force Base

Loading…

Następne Przeloty (najbliższe 24 godziny)

TLE

ŚwieżeSource: Space-Track

Epoka: Sep 13, 2026, 16:51 UTC

1 41273U 00055FZ  26256.70275038  .00016469  00000-0  20792-2 0  9998
2 41273  98.9084 169.3492 0030418   9.7115 350.4676 14.81673089563440

Śledź NOAA 16 DEB w czasie rzeczywistym z AllMySat

Download on the App Store